User: anonymous   Login
Location: Unspecified
(0.0000°N, 0.0000°E)
Time: 03:40:09
(UTC+00:00)
Language:

Nimbus 3 - Orbit

View from above orbital plane
View from above orbital plane
View from above satellite
View from above satellite

Ground track
Ground track

The orbit data is extracted from the following two-line orbital elements,

1 03890U 69037A   18230.24262135 -.00000039  00000-0  83772-5 0  9999
2 03890  99.9292 139.4660 0040237  92.8549  58.5573 13.42521663417462
Epoch (UTC): 18 August 2018 05:49:22
Eccentricity: 0.0040237
inclination: 99.9292°
perigee height: 1070 km
apogee height: 1130 km
right ascension of ascending node: 139.4660°
argument of perigee: 92.8549°
revolutions per day: 13.42521663
mean anomaly at epoch: 58.5573°
orbit number at epoch: 41746

The dashed part of the orbit path shows where the satellite is in the earth's shadow,  

DLR